This is the latest recevied weather packets stored in our database for station/object KL4TQ. If no packets are shown the sender has not sent any weather packets the latest 10 day(s).
| Time | Temp. | Humidity | Pressure | Rain* | Wind** | Luminosity | Snow |
|---|---|---|---|---|---|---|---|
| 1788134469 | 45° F | 97% | 642.8 mmHg | 0 in | - | 31 W/m² | - |
| 1788134168 | 45° F | 97% | 642.8 mmHg | 0 in | - | 36 W/m² | - |
| 1788133869 | 45° F | 97% | 642.8 mmHg | 0 in | - | 26 W/m² | - |
| 1788133570 | 45° F | 97% | 642.8 mmHg | 0 in | - | 30 W/m² | - |
| 1788133268 | 45° F | 97% | 642.8 mmHg | 0 in | - | 36 W/m² | - |
| 1788132968 | 46° F | 97% | 642.8 mmHg | 0 in | - | 71 W/m² | - |
| 1788132668 | 45° F | 97% | 642.8 mmHg | 0 in | - | 104 W/m² | - |
| 1788132368 | 45° F | 97% | 642.8 mmHg | 0 in | - | 158 W/m² | - |
| 1788132069 | 45° F | 97% | 642.8 mmHg | 0 in | - | 96 W/m² | - |
| 1788131768 | 45° F | 97% | 642.8 mmHg | 0 in | - | 139 W/m² | - |
| 1788131469 | 45° F | 97% | 642.8 mmHg | 0 in | - | 122 W/m² | - |
| 1788131171 | 45° F | 97% | 642.8 mmHg | 0 in | - | 125 W/m² | - |
| 1788130868 | 45° F | 97% | 642.8 mmHg | 0.11 in | - | 80 W/m² | - |
| 1788130569 | 45° F | 97% | 642.8 mmHg | 0 in | - | 48 W/m² | - |
| 1788130268 | 45° F | 97% | 642.8 mmHg | 0 in | - | 92 W/m² | - |
| 1788129968 | 45° F | 97% | 642.8 mmHg | 0.06 in | - | 171 W/m² | - |
| 1788129668 | 45° F | 97% | 642.8 mmHg | 0.14 in | - | 78 W/m² | - |
| 1788129368 | 45° F | 97% | 642.8 mmHg | 0.15 in | - | 75 W/m² | - |
| 1788129068 | 45° F | 97% | 642.8 mmHg | 0.02 in | - | 34 W/m² | - |
| 1788128768 | 44° F | 97% | 642.8 mmHg | 0.03 in | - | 80 W/m² | - |
| 1788128468 | 44° F | 97% | 642.8 mmHg | 0 in | - | 74 W/m² | - |
| 1788128169 | 44° F | 97% | 642.8 mmHg | 0.09 in | - | 36 W/m² | - |
| 1788127868 | 44° F | 97% | 642.8 mmHg | 0.02 in | - | 34 W/m² | - |
| 1788127568 | 44° F | 97% | 642.8 mmHg | 0 in | - | 39 W/m² | - |
| 1788127268 | 44° F | 97% | 642.8 mmHg | 0.01 in | - | 28 W/m² | - |
* Rain latest hour (hover to see other rain measurements)
** Current wind speed in m/s (hover to see current wind gust speed)